Location: 22
(39.7117°N, 89.5929°W)
Time: 00:48:01
(UTC-05:00)

A-11 Canister half - Pass Details

Date: 16 June 2023
Orbit: 1523 x 1684 km, 47.3° (Epoch: 11 September)

Event Time Altitude Azimuth Distance (km) Brightness Sun altitude
Rises 23:53:26 0° 297° (WNW) 4,675 12.2 -25.1°
Reaches altitude 10° 23:56:27 10° 298° (WNW) 3,695 11.5 -25.3°
Maximum altitude 00:05:48 81° 26° (NNE) 1,564 9.0 -25.7°
Enters shadow 00:13:03 20° 113° (ESE) 3,046 10.2 -26.0°
